Location: Balsareny
(41.8670°N, 1.8830°E)
Time: 10:54:36
(UTC+01:00)

Envisat - Pass Details

Date: 06 December 2021
Orbit: 764 x 766 km, 98.2° (Epoch: 15 January)

Event Time Altitude Azimuth Distance (km) Brightness Sun altitude
Rises 05:18:23 0° 20° (NNE) 3,240 6.4 -30.3°
Reaches altitude 10° 05:20:51 10° 28° (NNE) 2,309 5.7 -29.9°
Maximum altitude 05:25:37 39° 98° (E) 1,128 4.3 -29.0°
Drops below altitude 10° 05:30:20 10° 167° (SSE) 2,292 5.7 -28.1°
Sets 05:32:46 0° 175° (S) 3,213 6.4 -27.7°
